Weather History for Greenville, ME

Change the Weather History Date:

Monday, November 5, 2012

  Actual Average (KMLT) Record (KMLT)
Temperature  
Mean Temperature 27 °F 39 °F  
Max Temperature 30 °F 47 °F 70 °F (1903)
Min Temperature 24 °F 31 °F 15 °F (1925)
Degree Days  
Heating Degree Days 38 26  
Month to date heating degree days 128  
Since 1 July heating degree days 1062  
Cooling Degree Days 0 0  
Month to date cooling degree days 0  
Year to date cooling degree days 268  
Moisture  
Dew Point 17 °F    
Average Humidity 65    
Maximum Humidity 81    
Minimum Humidity 53    
Precipitation  
Precipitation 0.03 in 0.13 in 1.99 in (1919)
Month to date precipitation 0.65  
Year to date precipitation 35.37  
Sea Level Pressure  
Sea Level Pressure 29.96 in    
Wind  
Wind Speed 7 mph (NW)    
Max Wind Speed 17 mph    
Max Gust Speed 24 mph    
T = Trace of Precipitation, MM = Missing Value Source: NWS Daily Summary

Daily Weather History Graph

Daily Weather History Graph

Search for Another Location

Airport:

Trip Planner

Search our weather history database for the weather conditions in past years. The results will help you decide how hot, cold, wet, or windy it might be!

Date:

Astronomy

Nov. 05, 2012 Rise Set
Actual Time 6:24 AM EST 4:19 PM EST
Civil Twilight 5:52 AM EST 4:50 PM EST
Nautical Twilight 5:17 AM EST 5:25 PM EST
Astronomical Twilight 4:42 AM EST 6:00 PM EST
Moon 9:53 PM EST (11/5) 11:42 AM EST (11/5)
Length of Visible Light 10h 57m
Length of Day
9h 55m
Waning Gibbous, 63% of the Moon is Illuminated
Nov 5
Waning Gibbous
Nov 6
Last Quarter
Nov 13
New
Nov 20
First Quarter
Nov 28
Full

Hourly Weather History & Observations

Time (EST) Temp. Windchill Dew Point Humidity Pressure Visibility Wind Dir Wind Speed Gust Speed Precip Events Conditions
12:56 AM 30.0 °F 23.2 °F 23.0 °F 75% 29.90 in - NW 6.9 mph - N/A   Unknown
1:56 AM 28.9 °F 22.8 °F 21.9 °F 75% 29.90 in - NW 5.8 mph - N/A   Unknown
2:56 AM 28.9 °F 21.9 °F 21.0 °F 72% 29.90 in - Variable 6.9 mph - N/A   Unknown
3:56 AM 28.9 °F 22.8 °F 19.0 °F 67% 29.91 in - Variable 5.8 mph - N/A   Unknown
4:56 AM 28.9 °F 22.8 °F 19.0 °F 67% 29.92 in - Variable 5.8 mph - N/A   Unknown
5:56 AM 28.0 °F 21.7 °F 18.0 °F 66% 29.92 in - Variable 5.8 mph - N/A   Unknown
6:56 AM 28.0 °F 21.7 °F 19.0 °F 69% 29.93 in - Variable 5.8 mph - N/A   Unknown
7:56 AM 28.0 °F 20.8 °F 18.0 °F 66% 29.94 in - Variable 6.9 mph - N/A   Unknown
8:56 AM 28.0 °F 20.8 °F 21.0 °F 75% 29.95 in - Variable 6.9 mph - N/A   Unknown
9:56 AM 28.9 °F 20.4 °F 19.9 °F 69% 29.96 in - NNW 9.2 mph - N/A   Unknown
10:56 AM 30.0 °F 21.7 °F 19.9 °F 66% 29.96 in - NW 9.2 mph - N/A   Unknown
11:56 AM 30.0 °F 21.7 °F 21.0 °F 69% 29.94 in - NW 9.2 mph - N/A   Unknown
12:56 PM 28.0 °F 18.6 °F 23.0 °F 81% 29.94 in - NNW 10.4 mph - 0.03 in   Unknown
1:56 PM 30.0 °F 20.5 °F 19.9 °F 66% 29.94 in - NW 11.5 mph - N/A   Unknown
2:56 PM 28.9 °F 21.1 °F 19.0 °F 67% 29.96 in - NW 8.1 mph - N/A   Unknown
3:56 PM 28.0 °F 20.8 °F 16.0 °F 61% 29.96 in - NW 6.9 mph - N/A   Unknown
4:56 PM 27.0 °F 18.0 °F 14.0 °F 58% 29.99 in - NW 9.2 mph - N/A   Unknown
5:56 PM 27.0 °F 23.0 °F 15.1 °F 61% 30.01 in - Variable 3.5 mph - N/A   Unknown
6:56 PM 27.0 °F 18.0 °F 12.0 °F 53% 30.02 in - NNW 9.2 mph 18.4 mph N/A   Unknown
7:56 PM 26.1 °F 13.1 °F 12.0 °F 55% 30.03 in - NNW 17.3 mph 24.2 mph N/A   Unknown
8:56 PM 26.1 °F 19.4 °F 12.0 °F 55% 30.03 in - Variable 5.8 mph 17.3 mph N/A   Unknown
9:56 PM 25.0 °F 12.2 °F 10.0 °F 53% 30.03 in - NNW 16.1 mph 23.0 mph N/A   Unknown
10:56 PM 24.1 °F 19.7 °F 10.9 °F 57% 30.02 in - Variable 3.5 mph - N/A   Unknown
11:56 PM 24.1 °F 17.0 °F 12.9 °F 62% 30.03 in - Variable 5.8 mph - N/A   Unknown